This is the latest recevied weather packets stored in our database for station/object KC4LZN. If no packets are shown the sender has not sent any weather packets the latest 1 day(s).
| Time | Temp. | Humidity | Pressure | Rain* | Wind** | Luminosity | Snow |
|---|---|---|---|---|---|---|---|
| 1777993220 | 26.11° C | 61% | 1017.6 hPa | 0 mm | 1.79 m/s, 32° | 723 W/m² | - |
| 1777992917 | 26.11° C | 63% | 1017.6 hPa | 0 mm | 2.24 m/s, 99° | 750 W/m² | - |
| 1777992615 | 25.56° C | 66% | 1017.3 hPa | 0 mm | 1.79 m/s, 65° | 757 W/m² | - |
| 1777992313 | 26.11° C | 63% | 1017.5 hPa | 0 mm | 1.34 m/s, 29° | 732 W/m² | - |
| 1777992010 | 25.56° C | 67% | 1017.5 hPa | 0 mm | 0 m/s | 677 W/m² | - |
| 1777991708 | 26.11° C | 65% | 1017.3 hPa | 0 mm | 1.34 m/s, 43° | 664 W/m² | - |
| 1777991404 | 26.11° C | 67% | 1017.4 hPa | 0 mm | 0.45 m/s, 104° | 653 W/m² | - |
| 1777991102 | 25.56° C | 68% | 1017.2 hPa | 0 mm | 0.89 m/s, 44° | 628 W/m² | - |
| 1777990799 | 25.56° C | 67% | 1017.4 hPa | 0 mm | 1.34 m/s, 195° | 593 W/m² | - |
| 1777990496 | 25° C | 70% | 1017.4 hPa | 0 mm | 0.89 m/s, 77° | 573 W/m² | - |
| 1777990193 | 25° C | 70% | 1017.4 hPa | 0 mm | 0.89 m/s, 155° | 561 W/m² | - |
| 1777989889 | 25° C | 68% | 1017.3 hPa | 0 mm | 3.13 m/s, 76° | 349 W/m² | - |
| 1777989586 | 25° C | 69% | 1017.2 hPa | 0 mm | 2.68 m/s, 122° | 501 W/m² | - |
| 1777989283 | 25° C | 71% | 1017.3 hPa | 0 mm | 1.79 m/s, 56° | 535 W/m² | - |
| 1777988979 | 24.44° C | 70% | 1017.4 hPa | 0 mm | 3.13 m/s, 87° | 514 W/m² | - |
| 1777988676 | 25° C | 71% | 1017.2 hPa | 0 mm | 2.68 m/s, 59° | 502 W/m² | - |
| 1777988372 | 23.89° C | 73% | 1017.1 hPa | 0 mm | 0.89 m/s, 83° | 485 W/m² | - |
| 1777988070 | 23.89° C | 71% | 1017.3 hPa | 0 mm | 1.79 m/s, 131° | 448 W/m² | - |
| 1777987765 | 24.44° C | 73% | 1017.4 hPa | 0 mm | 1.34 m/s, 34° | 449 W/m² | - |
| 1777987462 | 24.44° C | 72% | 1017.4 hPa | 0 mm | 0.45 m/s, 26° | 402 W/m² | - |
| 1777987160 | 23.89° C | 73% | 1017.5 hPa | 0 mm | 0.45 m/s, 91° | 405 W/m² | - |
| 1777986856 | 23.89° C | 73% | 1017.4 hPa | 0 mm | 0.89 m/s, 47° | 385 W/m² | - |
| 1777986554 | 23.33° C | 74% | 1017.3 hPa | 0 mm | 1.34 m/s, 104° | 373 W/m² | - |
| 1777986252 | 22.78° C | 77% | 1017.6 hPa | 0 mm | 1.34 m/s, 114° | 340 W/m² | - |
| 1777985949 | 22.22° C | 77% | 1017.3 hPa | 0 mm | 0.45 m/s, 32° | 305 W/m² | - |
* Rain latest hour (hover to see other rain measurements)
** Current wind speed in m/s (hover to see current wind gust speed)